RH
84 83 83 82 82 81 77 76 77 77 77 78 81 82 78 78 79 83 71 58 61 57 43 33 28 39 36 38 70 76 79 57 53 58 50 50 50 73 76 74 75 76 83 69 81 74 60 66 61 67 63 49 43 41
84 84 84 82 84 83 78 81 81 81 79 78 80 82 81 78 78 80 73 50 43 58 48 38 34 30 30 28 34 69 69 72 66 71 71 75 82 73 81 82 63 67 67 75 70 71 70 76 75 77 73 71 44 47
86 87 87 86 86 84 80 80 79 79 79 80 81 82 82 80 79 79 79 67 63 60 46 39 35 28 22 20 19 41 59 63 70 93 99 94 90 92 86 68 65 79 82 86 62 63 66 66 68 76 69 76 67 39
87 87 87 88 87 82 81 80 79 79 81 81 83 83 82 85 82 85 80 64 62 56 58 36 23 30 20 15 16 15 22 35 41 83 97 99 94 87 84 63 63 81 86 91 88 66 71 78 83 85 72 62 66 46
88 88 88 89 88 81 79 79 82 81 81 83 85 84 82 86 90 86 76 68 58 63 63 55 40 29 20 18 15 14 15 26 45 49 50 55 76 88 82 72 71 92 92 94 92 77 83 83 82 74 76 76 78 72
87 87 88 88 89 82 82 80 81 82 83 85 86 85 85 85 89 76 65 59 52 49 64 60 34 30 24 23 24 25 26 32 46 49 48 47 39 60 68 84 87 66 74 64 87 84 85 73 69 64 66 83 88 61
87 87 87 88 88 81 82 82 81 83 85 85 85 85 88 86 83 69 68 68 76 72 67 60 48 30 26 28 29 34 28 38 43 46 49 46 44 49 52 67 75 63 72 75 78 84 81 91 89 88 71 63 55 62
86 86 87 87 88 82 80 81 83 84 86 87 86 86 90 85 90 71 51 70 77 67 60 60 46 41 39 40 44 38 43 43 48 46 48 52 52 57 65 69 73 74 63 60 76 84 94 86 84 89 66 62 65 59
86 86 86 87 88 86 80 81 85 86 87 88 90 89 81 83 62 64 77 79 70 72 75 59 54 60 62 60 50 49 50 53 47 44 45 50 53 66 65 77 78 66 66 73 74 88 85 76 90 87 60 53 54 63
85 85 86 87 88 89 81 82 84 86 88 90 82 70 67 61 90 77 67 69 67 61 63 55 39 40 32 67 60 77 83 83 88 61 53 49 46 54 71 74 72 76 71 82 84 84 82 72 73 53 54 56 60 64
85 85 86 87 88 89 90 90 90 90 83 63 59 58 50 86 60 63 71 76 69 69 54 49 48 49 44 63 81 95 98 98 91 82 72 58 62 61 75 78 73 77 70 84 86 81 56 53 56 58 60 60 64 68
85 85 86 87 88 89 90 92 90 82 65 89 90 76 59 54 60 62 66 59 62 67 58 56 60 54 52 60 76 94 93 96 92 86 77 67 78 85 79 78 72 79 78 82 79 68 54 54 57 61 64 64 66 70
85 86 86 88 89 89 90 91 91 93 88 70 81 68 53 67 84 56 56 74 89 64 63 60 56 56 63 59 67 86 86 91 89 92 83 79 85 76 88 76 78 84 74 57 53 54 56 59 59 61 64 65 68 71
86 86 87 87 89 90 88 89 92 87 79 68 62 98 56 50 43 57 50 54 54 54 50 56 78 67 62 83 84 78 76 83 78 65 64 72 80 81 77 69 64 63 53 52 57 58 62 66 64 65 62 69 68 69
87 87 86 85 79 85 89 90 91 79 69 61 54 79 48 43 44 48 53 59 59 49 51 56 68 71 80 75 77 82 78 64 58 72 90 94 88 85 78 70 74 64 59 59 59 60 63 64 66 65 64 66 69 69
88 87 65 75 85 86 86 84 79 71 61 53 50 46 48 47 45 55 69 72 55 57 59 67 79 73 70 68 66 71 75 72 92 93 98 97 86 85 80 74 67 64 67 63 62 62 62 66 64 62 58 64 63 66
89 70 74 82 86 88 82 73 64 69 62 56 52 45 45 51 59 67 80 66 61 61 87 79 79 73 70 75 64 63 70 91 94 96 97 94 97 99 84 74 73 68 65 67 74 70 64 71 65 69 73 64 59 65
66 58 73 81 88 88 67 72 64 73 64 50 59 57 58 79 86 79 65 58 75 84 88 75 84 80 72 60 70 89 88 84 80 92 96 93 96 94 87 86 85 82 79 72 72 71 67 72 70 73 73 71 66 70
78 81 87 92 93 94 73 75 71 80 63 47 57 67 76 84 76 66 66 72 91 91 93 92 86 87 85 89 90 90 92 95 93 94 92 91 89 84 81 84 83 81 80 78 76 68 72 67 63 67 61 68 63 71
90 90 88 87 86 79 83 81 70 76 85 68 74 95 95 78 64 64 83 92 94 93 91 87 92 94 96 83 77 73 93 96 97 95 94 96 94 88 87 89 91 82 81 77 67 68 69 60 60 64 60 65 59 58
77 68 79 77 78 75 73 97 91 76 76 60 88 93 88 88 74 71 82 86 69 74 90 88 95 82 88 86 83 87 86 94 98 99 100 100 95 91 84 86 76 70 68 67 65 58 69 66 64 56 54 65 59 62
71 72 59 72 69 64 76 69 83 69 54 71 68 68 89 87 92 89 96 94 97 98 97 98 97 99 98 96 94 91 92 94 97 99 100 100 92 74 72 71 68 68 69 66 68 68 68 62 61 58 60 68 63 65
75 71 64 61 62 70 75 46 57 56 65 54 59 61 65 87 95 74 95 98 98 98 98 99 98 99 98 94 94 92 93 95 98 95 90 82 70 69 67 66 67 72 72 65 62 68 66 70 61 63 73 67 68 65
81 66 62 57 58 70 41 49 41 43 47 46 62 63 66 58 71 82 87 98 96 96 97 90 98 98 96 92 95 94 80 77 80 74 65 63 61 68 66 59 62 61 62 62 62 60 61 61 64 61 71 66 65 65
84 78 77 100 50 49 48 46 48 46 48 47 49 64 65 52 58 73 82 93 97 93 90 91 88 90 93 92 90 81 67 66 62 66 65 61 60 54 52 54 60 55 47 53 59 57 56 59 59 53 53 59 57 51
92 61 82 52 55 49 47 52 54 53 46 45 45 54 56 52 54 71 84 91 92 90 89 83 86 77 83 71 68 58 58 56 58 53 56 53 52 53 52 52 50 53 41 43 40 39 37 37 40 40 42 37 44 33
82 62 48 47 45 45 57 47 49 52 52 55 53 58 52 60 71 77 89 88 89 88 87 82 69 55 58 61 57 56 50 45 55 53 41 40 41 38 38 38 42 48 37 30 28 28 30 29 30 29 30 32 32 31
51 62 55 60 61 51 61 56 60 58 60 78 75 70 67 72 85 89 86 77 81 67 85 64 51 39 36 41 44 45 44 42 43 40 37 37 39 37 42 37 41 50 39 35 34 32 32 33 33 32 33 34 35 31
48 47 48 60 57 51 54 45 49 53 57 78 80 75 77 73 62 81 87 83 63 62 48 47 45 42 46 39 42 56 38 35 46 50 47 44 43 41 39 40 36 36 35 34 55 44 41 36 39 37 38 40 40 42
47 44 55 49 52 53 48 39 45 41 41 49 51 60 63 76 59 64 72 67 84 65 59 68 66 48 73 81 74 48 36 28 27 30 48 47 41 36 38 37 35 33 36 31 30 32 55 43 42 40 39 35 39 46
32 37 52 40 45 49 53 38 43 43 48 48 57 83 81 58 55 56 71 60 56 56 91 90 68 51 38 43 47 45 37 32 34 35 31 28 29 35 38 37 29 28 29 28 29 33 33 35 33 31 34 37 38 43
38 42 45 52 57 54 47 42 42 53 46 64 77 56 56 77 64 80 60 68 84 94 77 68 48 64 67 49 44 43 55 32 35 35 38 35 38 38 32 27 27 27 28 27 26 25 26 28 29 32 33 38 42 46
45 50 43 42 47 48 45 49 51 50 47 56 71 65 66 60 66 71 71 74 60 62 65 51 71 72 62 47 47 45 49 39 56 65 61 60 62 57 35 32 32 28 26 26 26 25 28 33 34 43 45 44 48 52
Wind_Speed
16 17 18 18 18 18 18 19 18 18 18 18 17 17 16 16 15 9 9 10 3 4 13 11 12 11 9 4 0 4 4 4 2 2 3 4 3 3 5 2 1 3 3 3 2 2 5 10 10 7 13 7 4 7
17 18 18 18 18 18 19 18 18 18 19 18 18 16 15 15 14 10 5 9 9 5 9 20 23 21 20 15 6 1 3 2 3 4 8 5 5 4 4 2 2 1 3 5 5 3 1 2 6 4 19 17 11 1
17 17 17 18 18 19 19 19 19 19 19 18 17 16 15 15 14 8 7 6 5 5 11 9 12 18 18 19 16 5 3 2 5 3 3 2 2 2 3 4 3 3 3 3 1 2 4 2 2 4 6 5 16 22
17 18 18 18 18 20 19 20 20 20 19 18 17 16 17 15 15 9 5 6 5 6 6 8 10 9 9 16 18 16 13 4 4 4 7 4 5 5 6 4 2 2 5 5 5 7 6 8 5 3 9 18 20 10
17 18 18 18 18 20 21 21 20 20 20 19 18 18 18 17 14 9 8 7 9 4 5 10 20 19 14 8 15 13 12 7 3 4 2 5 4 4 3 1 1 3 6 3 7 4 5 5 7 5 6 11 30 26
18 18 19 19 19 21 21 22 22 20 20 19 19 19 19 17 10 5 3 5 9 7 4 6 7 9 10 9 9 8 7 4 3 3 4 3 5 3 4 4 6 12 13 13 6 7 4 5 4 9 5 15 30 3
18 19 19 20 20 22 21 22 22 21 20 19 19 20 18 14 5 5 3 2 7 4 4 6 6 6 9 4 4 3 5 4 4 4 3 4 4 6 4 3 7 7 15 10 5 5 2 16 9 15 14 20 3 6
19 19 20 20 21 22 23 23 23 22 21 21 21 20 13 4 5 7 5 11 3 4 4 5 6 3 10 3 4 4 4 4 4 4 2 3 2 3 2 4 8 6 8 9 12 7 12 12 20 18 4 6 8 7
19 21 21 21 22 22 24 24 22 24 26 22 18 12 3 4 4 2 4 9 3 3 4 5 7 5 4 8 4 5 2 3 3 6 6 3 5 5 9 10 9 8 6 8 12 15 11 13 13 16 5 4 8 7
19 21 21 22 22 22 24 21 21 26 29 19 3 4 3 1 8 3 1 4 5 5 5 5 3 8 6 3 6 5 5 4 4 3 6 6 9 6 5 10 9 6 7 8 11 10 11 16 12 6 8 7 7 7
20 21 22 22 22 21 21 18 17 23 17 2 3 3 5 6 3 5 3 4 5 4 5 5 5 7 2 1 3 3 2 5 5 5 6 4 3 3 13 10 3 4 3 7 5 2 6 8 7 7 8 8 7 6
21 22 22 22 22 21 19 15 14 9 5 6 6 7 5 4 4 4 3 4 3 2 4 3 2 3 4 1 5 2 3 2 2 6 3 4 1 11 12 10 9 6 2 4 10 9 7 9 9 8 8 7 6 5
21 23 23 23 22 18 16 13 12 14 13 3 4 5 3 3 3 5 3 1 3 4 6 4 5 4 4 5 3 5 5 5 2 3 4 6 6 13 13 11 7 7 13 8 11 12 11 9 9 8 7 7 7 7
22 23 25 24 21 12 12 14 13 9 4 5 4 5 4 5 2 6 7 2 3 3 2 3 2 3 2 4 2 4 3 4 4 4 6 5 8 6 7 7 9 9 12 13 12 9 8 8 7 8 7 7 7 5
24 26 27 18 8 11 15 15 11 4 4 5 4 3 3 5 0 3 7 6 7 6 6 2 1 3 2 2 2 3 7 2 4 1 5 7 8 9 8 8 8 8 9 9 8 7 7 7 6 6 6 6 6 4
21 26 2 4 8 16 20 13 5 4 5 5 5 5 4 7 6 3 3 3 4 6 5 4 4 3 3 2 2 4 3 3 4 4 7 9 4 1 7 8 8 9 8 7 6 6 7 6 8 7 6 6 6 6
20 6 11 16 23 25 8 4 5 6 4 4 3 2 4 3 6 6 3 4 2 3 2 1 4 8 2 3 2 1 2 2 1 3 4 5 11 14 5 8 8 9 10 9 8 7 7 6 8 6 6 3 3 4
6 12 20 20 16 11 4 5 4 3 5 4 2 4 4 1 4 4 5 5 3 1 1 2 1 3 3 3 2 4 4 4 3 1 2 3 5 9 2 8 8 8 8 7 7 4 3 7 5 3 3 3 4 5
17 17 26 24 7 4 5 3 3 2 5 3 1 3 2 1 2 4 4 4 1 2 2 3 2 3 3 3 3 4 5 4 4 3 3 7 6 5 7 6 6 6 7 4 4 3 3 6 5 3 2 2 1 4
26 20 18 4 7 4 3 4 2 2 4 2 6 4 3 3 2 3 4 4 2 1 1 2 4 3 3 4 6 5 3 2 5 4 3 2 4 6 5 2 4 6 5 4 4 4 3 4 3 3 1 2 2 1
11 3 3 8 5 5 4 2 5 4 4 2 3 3 2 2 2 4 5 5 5 4 3 3 4 5 6 6 5 3 3 2 6 4 1 3 3 6 6 3 3 3 4 3 3 3 4 2 2 2 3 3 3 3
6 8 3 6 4 4 5 6 5 4 2 2 3 4 2 2 2 2 1 4 2 2 3 2 3 4 5 8 5 5 5 7 4 3 7 4 3 4 4 3 4 3 4 4 4 4 2 2 3 3 3 3 2 0
10 4 4 4 3 1 8 4 2 4 2 3 2 4 1 4 3 6 4 2 2 2 2 3 3 3 7 7 5 5 3 3 5 5 6 1 5 4 4 4 4 4 4 2 3 3 2 2 1 4 4 4 3 1
1 4 4 4 3 5 3 3 1 3 3 4 3 4 5 2 6 2 3 2 2 0 1 3 2 5 6 3 1 5 6 4 5 2 4 3 4 3 3 4 3 2 3 4 3 2 4 3 5 5 4 4 3 4
2 6 3 6 5 4 4 5 4 4 5 9 0 3 4 2 2 2 3 1 2 1 1 2 1 4 3 4 4 6 4 1 2 4 2 2 4 2 3 3 2 3 2 3 4 2 3 3 4 5 6 5 6 7
0 4 3 3 4 3 3 4 3 5 7 3 2 3 4 2 3 4 3 2 2 2 2 4 5 3 5 6 6 4 5 5 4 2 2 6 3 3 3 3 3 1 3 1 3 3 3 1 2 2 6 6 3 4
2 3 2 4 3 3 3 4 3 2 4 3 3 3 4 2 3 3 2 2 2 1 2 5 3 5 5 6 8 6 4 4 6 3 7 9 3 5 5 4 4 2 4 6 7 8 7 7 6 5 5 5 5 5
4 2 5 2 1 3 4 2 4 4 3 1 5 6 7 6 3 0 1 1 2 1 4 5 8 3 3 5 4 4 4 4 5 5 5 4 3 4 5 4 4 7 5 6 5 5 5 5 5 5 5 4 2 1
5 4 2 2 2 2 2 2 2 3 3 2 2 2 1 2 3 1 2 3 1 2 2 6 7 6 9 7 6 4 1 2 4 5 6 4 1 1 2 2 4 3 4 4 3 3 1 2 3 4 6 5 4 1
3 3 2 1 2 2 1 3 3 2 2 2 2 3 4 2 0 3 4 2 1 2 4 5 5 5 3 3 5 3 2 4 4 4 2 2 2 2 3 5 6 2 4 8 6 5 4 3 5 4 3 8 6 1
2 3 1 1 1 2 1 6 4 5 3 5 6 1 2 2 1 2 3 4 3 5 7 5 7 3 2 4 5 6 2 5 8 8 8 8 8 7 5 5 5 6 7 9 6 2 2 3 5 8 6 6 5 6
6 6 5 3 1 1 3 1 1 1 3 3 2 4 5 2 2 0 1 8 8 5 6 9 5 2 2 2 4 6 5 5 6 6 8 5 4 6 7 7 8 8 9 9 9 10 12 12 10 10 9 10 10 1
3 3 4 3 2 3 3 2 1 2 2 2 1 2 2 2 2 2 3 3 5 5 4 2 1 3 5 3 6 5 3 6 6 5 4 2 2 5 4 6 6 6 9 8 10 11 12 14 12 11 14 13 12 10
Wind_Direction
339 339 338 337 337 337 337 337 335 334 333 332 331 332 336 341 346 345 277 273 266 267 280 257 300 313 325 325 238 269 332 213 299 235 230 256 301 8 75 70 104 94 86 34 90 71 300 19 1 46 331 324 60 87
339 338 339 338 335 335 336 333 331 330 329 328 325 323 325 332 339 341 280 351 333 260 270 301 280 263 257 256 281 174 252 279 14 4 23 24 30 33 16 68 10 290 200 165 166 209 111 304 173 291 335 322 321 77
334 335 335 335 334 335 334 333 331 329 328 324 321 318 318 320 324 322 295 314 298 268 278 239 245 243 233 221 236 236 183 173 66 127 66 347 47 189 161 222 209 97 330 182 147 75 140 204 81 27 259 292 330 304
332 334 334 333 332 335 332 331 330 328 325 324 321 317 316 313 310 298 278 310 284 278 281 292 355 313 266 214 208 231 256 234 171 152 115 265 232 192 202 222 140 98 73 344 338 310 350 45 23 301 322 326 338 290
329 330 330 330 331 333 330 330 327 325 321 318 315 313 314 311 302 286 259 241 250 268 309 300 300 275 262 192 193 213 227 242 271 304 253 220 137 141 199 35 139 178 122 179 219 188 189 251 199 160 96 24 326 291
329 329 329 330 330 333 330 329 326 323 320 317 315 313 314 312 300 291 267 172 213 234 278 292 327 278 286 187 199 193 200 211 205 235 259 293 151 147 157 150 143 191 168 226 225 208 195 344 309 298 111 165 240 323
326 327 326 327 328 332 329 327 325 322 319 315 313 314 314 307 222 235 328 345 342 302 250 278 279 231 238 213 179 178 209 200 186 216 239 256 269 142 219 170 166 129 153 209 211 98 354 31 347 319 223 223 187 62
324 324 324 325 326 330 330 327 324 319 317 316 312 311 307 341 242 284 225 220 204 264 263 275 272 302 5 288 202 190 204 193 224 233 260 234 262 148 162 163 136 191 211 190 161 147 127 56 2 313 306 41 60 51
322 322 324 324 324 326 329 327 320 315 312 309 304 302 243 225 235 62 70 115 212 294 301 275 301 327 64 253 351 21 318 194 213 210 231 222 240 207 199 157 169 200 149 84 90 121 144 141 183 254 265 311 80 60
320 320 321 322 324 323 329 327 322 316 309 311 232 212 209 45 126 148 119 192 199 200 227 253 271 280 293 27 24 20 8 6 11 359 317 216 242 230 160 163 160 155 141 137 121 162 169 169 196 136 91 73 70 64
317 318 318 319 322 324 321 316 317 322 306 253 300 7 332 134 237 218 222 210 187 232 227 246 247 274 219 161 105 45 137 339 9 310 332 287 238 279 129 112 149 347 344 97 120 238 158 130 127 114 106 93 94 91
315 317 317 317 320 320 315 309 318 325 351 325 292 275 254 233 222 236 231 215 185 259 286 306 22 275 308 354 103 50 94 112 135 311 340 272 250 129 146 154 161 194 110 226 204 209 135 108 106 107 105 111 101 84
314 314 315 317 318 315 306 294 302 297 292 218 215 238 203 222 10 229 300 96 343 302 348 350 7 342 329 21 82 140 165 191 133 218 219 232 283 158 179 182 171 224 219 148 100 96 100 110 113 120 124 121 108 90
315 315 315 318 314 300 290 295 304 317 255 247 224 289 203 218 274 15 358 325 189 296 322 7 36 332 3 19 347 329 187 134 202 225 225 228 190 130 112 134 124 128 115 110 110 109 110 97 98 101 87 87 87 87
315 314 310 301 294 302 300 297 294 257 261 254 232 223 217 334 346 71 0 23 347 15 7 337 113 178 284 285 198 150 244 207 241 14 355 328 114 134 144 125 115 123 105 101 112 135 138 137 148 119 130 133 136 130
319 309 230 298 313 324 315 288 209 232 241 235 250 299 26 349 339 55 29 263 14 348 326 42 358 320 253 273 249 247 311 300 24 348 318 327 333 107 118 122 116 116 128 142 145 130 121 105 122 128 96 71 125 118
314 235 346 350 348 321 307 252 217 229 253 270 266 321 347 307 355 353 319 329 44 333 285 176 206 195 226 245 257 227 306 63 285 22 300 12 33 335 34 94 92 101 98 89 86 91 101 81 98 98 106 128 126 120
261 307 313 320 336 295 198 209 255 249 245 251 322 6 31 24 320 336 343 339 346 284 272 230 4 290 256 265 10 1 1 341 350 135 245 276 97 239 343 76 77 88 95 98 103 106 108 107 108 130 144 45 53 127
291 294 296 297 289 310 285 228 228 274 271 292 166 42 25 296 25 357 342 349 227 205 260 147 172 213 263 36 355 348 8 358 311 286 241 199 168 151 119 98 96 93 104 122 130 119 113 142 160 141 162 136 90 183
294 282 271 262 178 259 287 291 276 69 295 292 49 353 293 328 56 30 19 347 297 250 357 350 30 21 345 335 332 341 30 350 32 321 127 69 101 86 64 138 141 145 131 123 106 103 83 39 53 78 58 110 97 128
294 173 148 165 193 220 266 102 270 249 266 128 155 189 274 189 80 32 9 339 32 20 26 26 3 342 327 300 297 315 330 80 66 33 85 308 11 204 197 158 130 127 122 120 134 107 93 186 146 58 41 48 87 73
262 317 265 184 264 229 239 191 215 222 357 215 275 144 204 41 53 108 287 32 35 336 324 313 323 330 351 4 353 40 52 70 66 34 306 255 198 84 58 56 92 110 108 117 131 123 112 41 90 27 105 111 49 333
287 205 228 242 270 313 257 260 352 315 191 272 17 333 214 144 175 166 83 328 290 254 281 318 352 337 360 345 345 354 360 343 288 250 245 195 76 67 54 57 72 97 92 57 66 118 112 68 130 74 61 45 34 308
322 266 284 291 221 258 289 284 257 287 320 320 79 333 324 8 161 60 85 174 261 8 309 71 34 336 337 348 279 266 278 209 233 234 93 88 85 68 101 106 90 112 115 115 121 132 127 193 157 144 146 147 221 258
308 285 168 283 269 332 311 341 326 353 319 322 297 206 243 276 76 68 61 60 206 262 101 94 236 242 260 278 268 267 241 108 175 133 165 151 132 86 64 103 95 71 39 177 175 200 222 183 189 184 191 199 230 229
328 227 152 315 329 291 322 319 304 314 316 309 360 356 315 297 56 60 53 35 125 182 189 215 201 251 290 294 313 332 351 325 82 113 170 184 187 138 132 110 101 40 312 279 293 287 307 171 171 210 185 188 105 356
254 258 236 216 238 254 271 250 282 313 328 325 335 310 341 301 77 69 94 1 76 197 167 299 249 231 240 196 244 265 255 20 20 25 62 31 47 82 87 75 50 19 359 46 37 34 27 28 15 27 42 54 54 31
237 231 272 344 255 293 303 342 26 350 39 9 345 327 349 11 71 348 332 342 250 252 182 233 228 242 69 56 48 63 51 42 31 25 58 80 38 51 48 76 64 50 45 37 3 32 17 18 354 345 15 10 354 237
219 229 176 270 233 254 273 18 25 338 3 59 293 223 318 71 102 249 277 283 337 13 323 4 325 47 21 43 30 358 90 117 75 58 39 15 317 54 8 107 158 213 201 132 53 113 340 329 319 329 322 319 296 24
243 190 154 304 194 230 257 61 79 39 16 46 68 65 98 103 354 270 295 130 37 36 49 336 332 77 131 184 247 241 31 22 0 20 103 282 333 79 356 328 326 206 213 161 193 213 236 286 280 272 280 283 291 88
171 131 162 250 17 98 215 123 109 82 15 39 46 62 121 127 229 14 0 70 38 83 90 299 310 351 68 20 350 10 76 66 66 44 31 32 30 22 358 340 11 42 22 21 355 347 298 229 278 324 309 326 85 96
162 180 166 186 216 101 33 66 60 1 73 71 31 114 143 123 137 108 43 92 73 15 198 215 218 246 286 332 343 307 241 72 47 46 49 41 24 6 355 5 29 24 19 12 0 3 10 14 1 354 355 4 3 220
132 123 175 129 149 202 165 97 300 150 88 98 28 174 154 91 112 161 87 120 157 205 208 185 355 331 27 236 264 277 28 88 94 106 93 67 50 30 9 20 11 18 13 10 27 9 6 7 357 34 48 37 31 28